Location: Napa Junction
(38.1874°N, 122.2508°W)
Time: 21:59:49
(UTC+00:00)

CENTAUR R/B - Pass Details

Date: 07 December 2024
Orbit: 654 x 1528 km, 63.4° (Epoch: 19 January)

Event Time Altitude Azimuth Distance (km) Brightness Sun altitude
Rises 02:13:16 0° 305° (NW) 4,501 6.5 -16.2°
Reaches altitude 10° 02:18:43 10° 278° (W) 3,637 6.5 -17.2°
Maximum altitude 02:21:42 12° 258° (WSW) 3,515 6.6 -17.8°
Drops below altitude 10° 02:24:43 10° 239° (WSW) 3,690 6.6 -18.3°
Sets 02:30:25 0° 212° (SSW) 4,649 6.7 -19.4°
